Time,TemperatureF,DewpointF,PressureIn,WindDirection,WindDirectionDegrees,WindSpeedMPH,WindSpeedGustMPH,Humidity,HourlyPrecipIn,Conditions,Clouds,dailyrainin,SoftwareType,DateUTC
2013-01-22 00:05:00,29.0,-99.9,29.83,NW,305,11.0,16.0,-999,-99.99,,,-99.99,,2013-01-22 05:05:00,
2013-01-22 00:12:00,-999.0,-99.9,29.83,WNW,301,14.0,19.0,-999,-99.99,,,-99.99,,2013-01-22 05:12:00,
2013-01-22 00:23:00,-999.0,-99.9,29.83,WNW,297,13.0,19.0,-999,-99.99,,,-99.99,,2013-01-22 05:23:00,
2013-01-22 00:33:00,-999.0,-99.9,29.83,WNW,297,13.0,19.0,-999,-99.99,,,-99.99,,2013-01-22 05:33:00,
2013-01-22 00:43:00,-999.0,-99.9,29.83,WNW,290,12.0,18.0,-999,-99.99,,,-99.99,,2013-01-22 05:43:00,
2013-01-22 00:53:00,-999.0,-99.9,29.83,WNW,294,12.0,21.0,-999,-99.99,,,-99.99,,2013-01-22 05:53:00,
2013-01-22 01:02:00,-999.0,-99.9,29.83,WNW,299,13.0,18.0,-999,-99.99,,,-99.99,,2013-01-22 06:02:00,
2013-01-22 01:12:00,-999.0,-99.9,29.83,WNW,292,14.0,21.0,-999,-99.99,,,-99.99,,2013-01-22 06:12:00,
2013-01-22 01:22:00,-999.0,-99.9,29.83,NW,305,16.0,23.0,-999,-99.99,,,-99.99,,2013-01-22 06:22:00,
2013-01-22 01:33:00,27.0,-99.9,29.83,WNW,282,12.0,18.0,-999,-99.99,,,-99.99,,2013-01-22 06:33:00,
2013-01-22 01:43:00,-999.0,-99.9,29.84,WNW,289,11.0,15.0,-999,-99.99,,,-99.99,,2013-01-22 06:43:00,
2013-01-22 01:53:00,-999.0,-99.9,29.84,WNW,298,14.0,20.0,-999,-99.99,,,-99.99,,2013-01-22 06:53:00,
2013-01-22 02:03:00,27.0,-99.9,29.84,WNW,291,14.0,21.0,-999,-99.99,,,-99.99,,2013-01-22 07:03:00,
2013-01-22 02:12:00,-999.0,-99.9,29.85,West,279,12.0,17.0,-999,-99.99,,,-99.99,,2013-01-22 07:12:00,
2013-01-22 02:22:00,-999.0,-99.9,29.85,WNW,282,13.0,21.0,-999,-99.99,,,-99.99,,2013-01-22 07:22:00,
2013-01-22 02:33:00,-999.0,-99.9,29.85,WNW,289,14.0,21.0,-999,-99.99,,,-99.99,,2013-01-22 07:33:00,
2013-01-22 02:43:00,-999.0,-99.9,29.86,WNW,291,11.0,16.0,-999,-99.99,,,-99.99,,2013-01-22 07:43:00,
2013-01-22 02:53:00,-999.0,-99.9,29.86,NW,308,15.0,22.0,-999,-99.99,,,-99.99,,2013-01-22 07:53:00,
2013-01-22 03:02:00,26.0,-99.9,29.86,NW,305,15.0,20.0,-999,-99.99,,,-99.99,,2013-01-22 08:02:00,
2013-01-22 03:12:00,-999.0,-99.9,29.86,NW,314,19.0,26.0,-999,-99.99,,,-99.99,,2013-01-22 08:12:00,
2013-01-22 03:22:00,-999.0,-99.9,29.86,NW,311,16.0,27.0,-999,-99.99,,,-99.99,,2013-01-22 08:22:00,
2013-01-22 03:33:00,26.0,-99.9,29.86,NW,313,16.0,25.0,-999,-99.99,,,-99.99,,2013-01-22 08:33:00,
2013-01-22 03:43:00,-999.0,-99.9,29.87,NW,309,16.0,25.0,-999,-99.99,,,-99.99,,2013-01-22 08:43:00,
2013-01-22 03:53:00,25.0,-99.9,29.87,NW,305,16.0,24.0,-999,-99.99,,,-99.99,,2013-01-22 08:53:00,
2013-01-22 04:02:00,-999.0,-99.9,29.87,WNW,295,14.0,22.0,-999,-99.99,,,-99.99,,2013-01-22 09:02:00,
2013-01-22 04:12:00,-999.0,-99.9,29.88,NW,305,18.0,25.0,-999,-99.99,,,-99.99,,2013-01-22 09:12:00,
2013-01-22 04:23:00,-999.0,-99.9,29.88,NW,308,16.0,23.0,-999,-99.99,,,-99.99,,2013-01-22 09:23:00,
2013-01-22 04:33:00,24.0,-99.9,29.88,WNW,285,12.0,18.0,-999,-99.99,,,-99.99,,2013-01-22 09:33:00,
2013-01-22 04:43:00,-999.0,-99.9,29.89,WNW,299,12.0,17.0,-999,-99.99,,,-99.99,,2013-01-22 09:43:00,
2013-01-22 04:53:00,-999.0,-99.9,29.90,WNW,296,14.0,21.0,-999,-99.99,,,-99.99,,2013-01-22 09:53:00,
2013-01-22 05:03:00,23.0,-99.9,29.90,WNW,301,12.0,19.0,-999,-99.99,,,-99.99,,2013-01-22 10:03:00,
2013-01-22 05:12:00,-999.0,-99.9,29.91,WNW,287,13.0,19.0,-999,-99.99,,,-99.99,,2013-01-22 10:12:00,
2013-01-22 05:22:00,-999.0,-99.9,29.91,WNW,284,14.0,21.0,-999,-99.99,,,-99.99,,2013-01-22 10:22:00,
2013-01-22 05:33:00,-999.0,-99.9,29.92,NW,307,13.0,18.0,-999,-99.99,,,-99.99,,2013-01-22 10:33:00,
2013-01-22 05:43:00,-999.0,-99.9,29.93,WNW,292,12.0,16.0,-999,-99.99,,,-99.99,,2013-01-22 10:43:00,
2013-01-22 05:53:00,-999.0,-99.9,29.93,WNW,294,14.0,22.0,-999,-99.99,,,-99.99,,2013-01-22 10:53:00,
2013-01-22 06:03:00,22.0,-99.9,29.94,NW,306,12.0,18.0,-999,-99.99,,,-99.99,,2013-01-22 11:03:00,
2013-01-22 06:12:00,-999.0,-99.9,29.95,WNW,301,12.0,17.0,-999,-99.99,,,-99.99,,2013-01-22 11:12:00,
2013-01-22 06:23:00,-999.0,-99.9,29.95,West,281,13.0,19.0,-999,-99.99,,,-99.99,,2013-01-22 11:23:00,
2013-01-22 06:33:00,21.0,-99.9,29.95,WNW,282,12.0,18.0,-999,-99.99,,,-99.99,,2013-01-22 11:33:00,
2013-01-22 06:43:00,-999.0,-99.9,29.95,WNW,295,10.0,15.0,-999,-99.99,,,-99.99,,2013-01-22 11:43:00,
2013-01-22 06:54:00,-999.0,-99.9,29.95,WNW,293,16.0,23.0,-999,-99.99,,,-99.99,,2013-01-22 11:54:00,
2013-01-22 07:04:00,21.0,-99.9,29.96,WNW,299,15.0,22.0,-999,-99.99,,,-99.99,,2013-01-22 12:04:00,
2013-01-22 07:13:00,-999.0,-99.9,29.96,WNW,300,16.0,23.0,-999,-99.99,,,-99.99,,2013-01-22 12:13:00,
2013-01-22 07:23:00,-999.0,-99.9,29.97,NW,309,14.0,20.0,-999,-99.99,,,-99.99,,2013-01-22 12:23:00,
2013-01-22 07:33:00,-999.0,-99.9,29.97,NW,309,14.0,20.0,-999,-99.99,,,-99.99,,2013-01-22 12:33:00,
2013-01-22 07:43:00,-999.0,-99.9,29.98,NW,306,16.0,25.0,-999,-99.99,,,-99.99,,2013-01-22 12:43:00,
2013-01-22 07:53:00,-999.0,-99.9,29.98,WNW,291,13.0,18.0,-999,-99.99,,,-99.99,,2013-01-22 12:53:00,
2013-01-22 08:04:00,20.0,-99.9,29.98,WNW,288,15.0,20.0,-999,-99.99,,,-99.99,,2013-01-22 13:04:00,
2013-01-22 08:14:00,-999.0,-99.9,29.99,West,280,13.0,18.0,-999,-99.99,,,-99.99,,2013-01-22 13:14:00,
2013-01-22 08:24:00,-999.0,-99.9,30.00,West,276,14.0,20.0,-999,-99.99,,,-99.99,,2013-01-22 13:24:00,
2013-01-22 08:34:00,20.0,-99.9,30.00,WNW,288,13.0,20.0,-999,-99.99,,,-99.99,,2013-01-22 13:34:00,
2013-01-22 08:43:00,-999.0,-99.9,30.01,West,280,15.0,21.0,-999,-99.99,,,-99.99,,2013-01-22 13:43:00,
2013-01-22 08:54:00,-999.0,-99.9,30.01,WNW,303,19.0,24.0,-999,-99.99,,,-99.99,,2013-01-22 13:54:00,
2013-01-22 09:03:00,-999.0,-99.9,30.02,WNW,297,15.0,20.0,-999,-99.99,,,-99.99,,2013-01-22 14:03:00,
2013-01-22 09:13:00,20.0,-99.9,30.02,NW,306,16.0,22.0,-999,-99.99,,,-99.99,,2013-01-22 14:13:00,
2013-01-22 09:23:00,-999.0,-99.9,30.02,WNW,293,18.0,26.0,-999,-99.99,,,-99.99,,2013-01-22 14:23:00,
2013-01-22 09:34:00,20.0,-99.9,30.02,NW,304,15.0,22.0,-999,-99.99,,,-99.99,,2013-01-22 14:34:00,
2013-01-22 09:45:00,-999.0,-99.9,30.02,WNW,301,17.0,24.0,-999,-99.99,,,-99.99,,2013-01-22 14:45:00,
2013-01-22 09:54:00,-999.0,-99.9,30.02,NW,307,18.0,26.0,-999,-99.99,,,-99.99,,2013-01-22 14:54:00,
2013-01-22 10:04:00,21.0,-99.9,30.03,NW,315,16.0,27.0,-999,-99.99,,,-99.99,,2013-01-22 15:04:00,
2013-01-22 10:13:00,-999.0,-99.9,30.04,WNW,298,21.0,31.0,-999,-99.99,,,-99.99,,2013-01-22 15:13:00,
2013-01-22 10:24:00,-999.0,-99.9,30.04,NW,313,21.0,35.0,-999,-99.99,,,-99.99,,2013-01-22 15:24:00,
2013-01-22 10:34:00,-999.0,-99.9,30.04,NW,310,17.0,23.0,-999,-99.99,,,-99.99,,2013-01-22 15:34:00,
2013-01-22 10:44:00,-999.0,-99.9,30.04,NW,310,17.0,23.0,-999,-99.99,,,-99.99,,2013-01-22 15:44:00,
2013-01-22 10:54:00,-999.0,-99.9,30.04,NW,304,14.0,21.0,-999,-99.99,,,-99.99,,2013-01-22 15:54:00,
2013-01-22 11:04:00,20.0,-99.9,30.04,WNW,299,16.0,25.0,-999,-99.99,,,-99.99,,2013-01-22 16:04:00,
2013-01-22 11:13:00,-999.0,-99.9,30.05,WNW,291,19.0,29.0,-999,-99.99,,,-99.99,,2013-01-22 16:13:00,
2013-01-22 11:24:00,-999.0,-99.9,30.04,WNW,283,17.0,23.0,-999,-99.99,,,-99.99,,2013-01-22 16:24:00,
2013-01-22 11:34:00,21.0,-99.9,30.04,WNW,295,15.0,21.0,-999,-99.99,,,-99.99,,2013-01-22 16:34:00,
2013-01-22 11:43:00,-999.0,-99.9,30.04,WNW,292,18.0,25.0,-999,-99.99,,,-99.99,,2013-01-22 16:43:00,
2013-01-22 11:54:00,-999.0,-99.9,30.04,WNW,299,17.0,22.0,-999,-99.99,,,-99.99,,2013-01-22 16:54:00,
2013-01-22 12:04:00,-999.0,-99.9,30.04,WNW,299,17.0,22.0,-999,-99.99,,,-99.99,,2013-01-22 17:04:00,
2013-01-22 12:13:00,-999.0,-99.9,30.03,West,265,14.0,25.0,-999,-99.99,,,-99.99,,2013-01-22 17:13:00,
2013-01-22 12:24:00,-999.0,-99.9,30.03,West,276,18.0,27.0,-999,-99.99,,,-99.99,,2013-01-22 17:24:00,
2013-01-22 12:35:00,-999.0,-99.9,30.03,West,276,18.0,27.0,-999,-99.99,,,-99.99,,2013-01-22 17:35:00,
2013-01-22 12:44:00,-999.0,-99.9,30.03,West,274,16.0,25.0,-999,-99.99,,,-99.99,,2013-01-22 17:44:00,
2013-01-22 12:54:00,-999.0,-99.9,30.02,WNW,287,17.0,25.0,-999,-99.99,,,-99.99,,2013-01-22 17:54:00,
2013-01-22 13:04:00,20.0,-99.9,30.02,West,281,21.0,32.0,-999,-99.99,,,-99.99,,2013-01-22 18:04:00,
2013-01-22 13:13:00,-999.0,-99.9,30.01,WNW,292,17.0,25.0,-999,-99.99,,,-99.99,,2013-01-22 18:13:00,
2013-01-22 13:24:00,-999.0,-99.9,30.01,WNW,301,16.0,25.0,-999,-99.99,,,-99.99,,2013-01-22 18:24:00,
2013-01-22 13:34:00,-999.0,-99.9,30.01,West,272,20.0,27.0,-999,-99.99,,,-99.99,,2013-01-22 18:34:00,
2013-01-22 13:44:00,-999.0,-99.9,30.01,WNW,296,16.0,24.0,-999,-99.99,,,-99.99,,2013-01-22 18:44:00,
2013-01-22 13:54:00,-999.0,-99.9,30.01,WNW,297,17.0,26.0,-999,-99.99,,,-99.99,,2013-01-22 18:54:00,
2013-01-22 14:04:00,21.0,-99.9,30.01,WNW,288,21.0,27.0,-999,-99.99,,,-99.99,,2013-01-22 19:04:00,
2013-01-22 14:14:00,-999.0,-99.9,30.01,WNW,290,18.0,28.0,-999,-99.99,,,-99.99,,2013-01-22 19:14:00,
2013-01-22 14:24:00,-999.0,-99.9,30.01,WNW,299,15.0,21.0,-999,-99.99,,,-99.99,,2013-01-22 19:24:00,
2013-01-22 14:34:00,-999.0,-99.9,30.01,WNW,299,15.0,21.0,-999,-99.99,,,-99.99,,2013-01-22 19:34:00,
2013-01-22 14:44:00,-999.0,-99.9,30.02,WNW,301,17.0,26.0,-999,-99.99,,,-99.99,,2013-01-22 19:44:00,
2013-01-22 14:54:00,-999.0,-99.9,30.02,NW,308,17.0,25.0,-999,-99.99,,,-99.99,,2013-01-22 19:54:00,
2013-01-22 15:03:00,-999.0,-99.9,30.02,WNW,289,15.0,21.0,-999,-99.99,,,-99.99,,2013-01-22 20:03:00,
2013-01-22 15:13:00,-999.0,-99.9,30.02,WNW,287,17.0,23.0,-999,-99.99,,,-99.99,,2013-01-22 20:13:00,
2013-01-22 15:23:00,-999.0,-99.9,30.03,WNW,300,17.0,26.0,-999,-99.99,,,-99.99,,2013-01-22 20:23:00,
2013-01-22 15:34:00,21.0,-99.9,30.03,WNW,283,18.0,25.0,-999,-99.99,,,-99.99,,2013-01-22 20:34:00,
2013-01-22 15:43:00,-999.0,-99.9,30.04,WNW,286,16.0,25.0,-999,-99.99,,,-99.99,,2013-01-22 20:43:00,
2013-01-22 15:54:00,-999.0,-99.9,30.04,WNW,301,16.0,25.0,-999,-99.99,,,-99.99,,2013-01-22 20:54:00,
2013-01-22 16:04:00,21.0,-99.9,30.04,WNW,291,18.0,25.0,-999,-99.99,,,-99.99,,2013-01-22 21:04:00,
2013-01-22 16:13:00,-999.0,-99.9,30.05,WNW,292,11.0,17.0,-999,-99.99,,,-99.99,,2013-01-22 21:13:00,
2013-01-22 16:23:00,-999.0,-99.9,30.05,NW,304,11.0,19.0,-999,-99.99,,,-99.99,,2013-01-22 21:23:00,
2013-01-22 16:34:00,21.0,-99.9,30.06,NW,305,14.0,22.0,-999,-99.99,,,-99.99,,2013-01-22 21:34:00,
2013-01-22 16:44:00,-999.0,-99.9,30.06,WNW,296,14.0,19.0,-999,-99.99,,,-99.99,,2013-01-22 21:44:00,
2013-01-22 16:53:00,-999.0,-99.9,30.07,West,274,15.0,24.0,-999,-99.99,,,-99.99,,2013-01-22 21:53:00,
2013-01-22 17:03:00,20.0,-99.9,30.07,WNW,288,18.0,24.0,-999,-99.99,,,-99.99,,2013-01-22 22:03:00,
2013-01-22 17:13:00,-999.0,-99.9,30.08,West,275,17.0,24.0,-999,-99.99,,,-99.99,,2013-01-22 22:13:00,
2013-01-22 17:23:00,-999.0,-99.9,30.09,West,280,16.0,23.0,-999,-99.99,,,-99.99,,2013-01-22 22:23:00,
2013-01-22 17:33:00,-999.0,-99.9,30.09,West,280,16.0,23.0,-999,-99.99,,,-99.99,,2013-01-22 22:33:00,
2013-01-22 17:44:00,-999.0,-99.9,30.09,WNW,285,13.0,19.0,-999,-99.99,,,-99.99,,2013-01-22 22:44:00,
2013-01-22 17:53:00,-999.0,-99.9,30.10,WNW,302,16.0,24.0,-999,-99.99,,,-99.99,,2013-01-22 22:53:00,
2013-01-22 18:03:00,20.0,-99.9,30.10,NW,312,13.0,21.0,-999,-99.99,,,-99.99,,2013-01-22 23:03:00,
2013-01-22 18:13:00,-999.0,-99.9,30.11,WNW,294,15.0,21.0,-999,-99.99,,,-99.99,,2013-01-22 23:13:00,
2013-01-22 18:24:00,-999.0,-99.9,30.11,NW,304,16.0,24.0,-999,-99.99,,,-99.99,,2013-01-22 23:24:00,
2013-01-22 18:34:00,19.0,-99.9,30.12,WNW,290,14.0,20.0,-999,-99.99,,,-99.99,,2013-01-22 23:34:00,
2013-01-22 18:43:00,-999.0,-99.9,30.12,NW,311,16.0,25.0,-999,-99.99,,,-99.99,,2013-01-22 23:43:00,
2013-01-22 18:53:00,-999.0,-99.9,30.13,WNW,286,12.0,19.0,-999,-99.99,,,-99.99,,2013-01-22 23:53:00,
2013-01-22 19:03:00,19.0,-99.9,30.13,WNW,292,13.0,19.0,-999,-99.99,,,-99.99,,2013-01-23 00:03:00,
2013-01-22 19:13:00,-999.0,-99.9,30.14,WNW,292,15.0,22.0,-999,-99.99,,,-99.99,,2013-01-23 00:13:00,
2013-01-22 19:23:00,-999.0,-99.9,30.14,WNW,291,12.0,17.0,-999,-99.99,,,-99.99,,2013-01-23 00:23:00,
2013-01-22 19:33:00,19.0,-99.9,30.14,WNW,284,13.0,22.0,-999,-99.99,,,-99.99,,2013-01-23 00:33:00,
2013-01-22 19:43:00,-999.0,-99.9,30.14,WNW,298,15.0,24.0,-999,-99.99,,,-99.99,,2013-01-23 00:43:00,
2013-01-22 19:53:00,-999.0,-99.9,30.14,West,276,14.0,23.0,-999,-99.99,,,-99.99,,2013-01-23 00:53:00,
2013-01-22 20:03:00,18.0,-99.9,30.14,West,277,14.0,22.0,-999,-99.99,,,-99.99,,2013-01-23 01:03:00,
2013-01-22 20:13:00,-999.0,-99.9,30.16,WNW,300,14.0,20.0,-999,-99.99,,,-99.99,,2013-01-23 01:13:00,
2013-01-22 20:23:00,-999.0,-99.9,30.16,West,279,15.0,22.0,-999,-99.99,,,-99.99,,2013-01-23 01:23:00,
2013-01-22 20:33:00,17.0,-99.9,30.16,West,273,12.0,16.0,-999,-99.99,,,-99.99,,2013-01-23 01:33:00,
2013-01-22 20:43:00,-999.0,-99.9,30.17,WNW,288,12.0,17.0,-999,-99.99,,,-99.99,,2013-01-23 01:43:00,
2013-01-22 20:53:00,-999.0,-99.9,30.17,WNW,296,15.0,22.0,-999,-99.99,,,-99.99,,2013-01-23 01:53:00,
2013-01-22 21:03:00,17.0,-99.9,30.17,West,273,13.0,18.0,-999,-99.99,,,-99.99,,2013-01-23 02:03:00,
2013-01-22 21:13:00,-999.0,-99.9,30.17,WNW,303,14.0,21.0,-999,-99.99,,,-99.99,,2013-01-23 02:13:00,
2013-01-22 21:23:00,-999.0,-99.9,30.17,WNW,299,13.0,20.0,-999,-99.99,,,-99.99,,2013-01-23 02:23:00,
2013-01-22 21:33:00,17.0,-99.9,30.17,WNW,293,14.0,18.0,-999,-99.99,,,-99.99,,2013-01-23 02:33:00,
2013-01-22 21:43:00,-999.0,-99.9,30.17,West,280,16.0,21.0,-999,-99.99,,,-99.99,,2013-01-23 02:43:00,
2013-01-22 21:54:00,-999.0,-99.9,30.17,WNW,298,16.0,23.0,-999,-99.99,,,-99.99,,2013-01-23 02:54:00,
2013-01-22 22:03:00,17.0,-99.9,30.18,NW,313,16.0,23.0,-999,-99.99,,,-99.99,,2013-01-23 03:03:00,
2013-01-22 22:13:00,-999.0,-99.9,30.18,NW,310,18.0,26.0,-999,-99.99,,,-99.99,,2013-01-23 03:13:00,
2013-01-22 22:23:00,-999.0,-99.9,30.19,NW,304,16.0,23.0,-999,-99.99,,,-99.99,,2013-01-23 03:23:00,
2013-01-22 22:33:00,17.0,-99.9,30.19,NW,309,15.0,19.0,-999,-99.99,,,-99.99,,2013-01-23 03:33:00,
2013-01-22 22:43:00,-999.0,-99.9,30.20,NW,313,13.0,19.0,-999,-99.99,,,-99.99,,2013-01-23 03:43:00,
2013-01-22 22:53:00,-999.0,-99.9,30.20,NW,314,16.0,24.0,-999,-99.99,,,-99.99,,2013-01-23 03:53:00,
2013-01-22 23:04:00,17.0,-99.9,30.20,NW,312,13.0,19.0,-999,-99.99,,,-99.99,,2013-01-23 04:04:00,
2013-01-22 23:13:00,-999.0,-99.9,30.20,NW,311,15.0,20.0,-999,-99.99,,,-99.99,,2013-01-23 04:13:00,
2013-01-22 23:23:00,-999.0,-99.9,30.20,NW,305,15.0,21.0,-999,-99.99,,,-99.99,,2013-01-23 04:23:00,
2013-01-22 23:33:00,16.0,-99.9,30.20,WNW,300,12.0,18.0,-999,-99.99,,,-99.99,,2013-01-23 04:33:00,
2013-01-22 23:43:00,-999.0,-99.9,30.20,NW,304,15.0,24.0,-999,-99.99,,,-99.99,,2013-01-23 04:43:00,
2013-01-22 23:53:00,-999.0,-99.9,30.20,WNW,302,16.0,23.0,-999,-99.99,,,-99.99,,2013-01-23 04:53:00,